Total_Precipitation_Accumulation
0.00 0.00 0.02 0.00 0.00 0.00 0.00 0.00 0.00 0.00 0.00 0.01 0.02 0.02 0.00 0.00 0.00 0.00 0.00 0.00 0.00 0.01 0.00 0.00 0.00 0.00 0.00 0.00 0.00 0.00 0.00 0.00 0.00 0.00 0.00 0.01 0.01 0.01 0.01 0.01 0.02 0.03 0.01
0.00 0.00 0.01 0.00 0.00 0.00 0.00 0.00 0.00 0.00 0.00 0.00 0.00 0.00 0.00 0.00 0.00 0.00 0.00 0.00 0.00 0.00 0.00 0.00 0.00 0.00 0.00 0.00 0.00 0.00 0.00 0.00 0.00 0.00 0.00 0.00 0.00 0.00 0.01 0.00 0.03 0.03 0.01
0.00 0.00 0.00 0.00 0.00 0.00 0.00 0.00 0.00 0.00 0.00 0.00 0.00 0.00 0.00 0.00 0.00 0.00 0.00 0.00 0.00 0.00 0.00 0.00 0.00 0.00 0.00 0.00 0.00 0.00 0.00 0.00 0.00 0.00 0.00 0.00 0.00 0.00 0.00 0.00 0.00 0.00 0.01
0.00 0.00 0.00 0.00 0.00 0.00 0.00 0.00 0.00 0.00 0.00 0.00 0.00 0.00 0.00 0.00 0.00 0.00 0.00 0.00 0.00 0.00 0.00 0.00 0.00 0.00 0.00 0.00 0.00 0.00 0.00 0.00 0.00 0.00 0.00 0.00 0.01 0.00 0.00 0.00 0.00 0.00 0.00
0.00 0.00 0.00 0.00 0.00 0.00 0.00 0.00 0.00 0.00 0.00 0.00 0.00 0.00 0.00 0.00 0.00 0.00 0.00 0.00 0.00 0.00 0.00 0.00 0.00 0.00 0.00 0.01 0.01 0.01 0.00 0.00 0.00 0.00 0.00 0.01 0.02 0.01 0.01 0.03 0.02 0.01 0.00
0.00 0.00 0.00 0.00 0.00 0.00 0.00 0.00 0.00 0.00 0.00 0.00 0.00 0.00 0.00 0.00 0.00 0.00 0.00 0.00 0.00 0.00 0.00 0.00 0.00 0.00 0.00 0.01 0.01 0.01 0.01 0.01 0.01 0.01 0.01 0.01 0.05 0.04 0.04 0.11 0.14 0.10 0.04
0.00 0.00 0.00 0.00 0.00 0.00 0.00 0.00 0.00 0.00 0.00 0.00 0.00 0.00 0.00 0.00 0.00 0.00 0.00 0.00 0.00 0.00 0.00 0.01 0.01 0.01 0.00 0.00 0.00 0.00 0.00 0.00 0.01 0.02 0.02 0.02 0.06 0.05 0.10 0.23 0.33 0.28 0.18
0.00 0.00 0.00 0.00 0.00 0.00 0.00 0.00 0.00 0.00 0.00 0.00 0.00 0.00 0.00 0.00 0.01 0.01 0.02 0.01 0.01 0.01 0.01 0.01 0.01 0.01 0.01 0.01 0.01 0.02 0.02 0.01 0.00 0.01 0.01 0.02 0.03 0.05 0.17 0.33 0.43 0.46 0.39
0.00 0.00 0.00 0.00 0.00 0.00 0.00 0.00 0.00 0.00 0.00 0.00 0.00 0.00 0.00 0.00 0.02 0.03 0.05 0.04 0.03 0.03 0.03 0.02 0.01 0.01 0.02 0.02 0.02 0.02 0.03 0.03 0.02 0.02 0.02 0.02 0.04 0.09 0.28 0.39 0.48 0.56 0.59
0.00 0.00 0.00 0.00 0.00 0.00 0.00 0.00 0.00 0.00 0.00 0.00 0.00 0.00 0.01 0.01 0.02 0.03 0.03 0.05 0.07 0.08 0.08 0.05 0.03 0.02 0.02 0.02 0.01 0.01 0.02 0.03 0.02 0.03 0.04 0.04 0.04 0.14 0.28 0.35 0.51 0.61 0.63
0.01 0.01 0.00 0.00 0.00 0.00 0.00 0.00 0.00 0.01 0.00 0.00 0.01 0.01 0.01 0.01 0.01 0.03 0.03 0.05 0.08 0.09 0.09 0.06 0.03 0.04 0.04 0.03 0.04 0.08 0.06 0.03 0.02 0.04 0.03 0.04 0.06 0.16 0.28 0.39 0.49 0.56 0.59
0.01 0.01 0.01 0.00 0.00 0.00 0.00 0.00 0.00 0.00 0.01 0.01 0.01 0.02 0.03 0.06 0.07 0.05 0.08 0.14 0.13 0.14 0.12 0.10 0.08 0.07 0.07 0.09 0.29 0.44 0.13 0.10 0.09 0.08 0.08 0.15 0.23 0.30 0.44 0.46 0.44 0.46 0.45
0.00 0.00 0.00 0.00 0.01 0.01 0.00 0.00 0.00 0.00 0.03 0.03 0.02 0.04 0.09 0.10 0.08 0.07 0.06 0.09 0.10 0.11 0.09 0.17 0.21 0.14 0.16 0.25 0.35 0.38 0.22 0.16 0.11 0.09 0.10 0.20 0.33 0.45 0.60 0.54 0.45 0.40 0.38
0.00 0.01 0.01 0.01 0.01 0.01 0.01 0.01 0.01 0.01 0.02 0.02 0.04 0.03 0.04 0.05 0.04 0.03 0.05 0.05 0.06 0.06 0.11 0.17 0.20 0.17 0.22 0.20 0.26 0.23 0.23 0.26 0.17 0.21 0.21 0.28 0.29 0.34 0.56 0.61 0.47 0.42 0.38
0.00 0.01 0.02 0.02 0.03 0.05 0.06 0.05 0.03 0.01 0.01 0.01 0.02 0.03 0.03 0.05 0.03 0.03 0.03 0.04 0.04 0.06 0.11 0.17 0.19 0.25 0.32 0.28 0.22 0.22 0.24 0.29 0.30 0.41 0.26 0.28 0.23 0.21 0.40 0.48 0.42 0.40 0.37
0.02 0.03 0.05 0.07 0.10 0.12 0.13 0.10 0.08 0.06 0.05 0.04 0.04 0.05 0.06 0.07 0.09 0.11 0.10 0.12 0.11 0.13 0.16 0.23 0.31 0.45 0.46 0.46 0.36 0.35 0.32 0.32 0.36 0.42 0.33 0.30 0.21 0.17 0.24 0.31 0.37 0.36 0.35
0.04 0.06 0.10 0.17 0.23 0.23 0.18 0.14 0.13 0.14 0.14 0.15 0.18 0.22 0.24 0.23 0.26 0.33 0.28 0.24 0.30 0.36 0.38 0.42 0.50 0.59 0.56 0.55 0.43 0.45 0.42 0.37 0.34 0.33 0.32 0.30 0.23 0.18 0.17 0.20 0.28 0.30 0.31
0.07 0.11 0.20 0.30 0.33 0.31 0.29 0.28 0.25 0.25 0.26 0.29 0.33 0.34 0.39 0.45 0.52 0.53 0.41 0.35 0.58 0.65 0.66 0.73 0.74 0.77 0.85 0.84 0.64 0.56 0.51 0.43 0.33 0.29 0.28 0.30 0.30 0.19 0.15 0.18 0.21 0.25 0.32
0.12 0.20 0.35 0.43 0.47 0.50 0.43 0.37 0.36 0.37 0.34 0.32 0.36 0.39 0.48 0.60 0.69 0.76 0.58 0.57 0.86 0.96 0.94 0.95 0.99 1.10 1.10 1.09 0.90 0.67 0.52 0.41 0.30 0.28 0.28 0.25 0.24 0.22 0.20 0.16 0.11 0.18 0.36
0.16 0.24 0.32 0.44 0.56 0.66 0.66 0.59 0.50 0.42 0.35 0.34 0.36 0.39 0.46 0.56 0.77 0.97 0.76 0.81 1.07 1.09 1.05 1.15 1.23 1.32 1.20 1.24 1.11 0.71 0.45 0.32 0.29 0.24 0.22 0.19 0.14 0.11 0.13 0.18 0.23 0.23 0.33
0.12 0.17 0.29 0.45 0.57 0.65 0.73 0.74 0.68 0.53 0.49 0.42 0.41 0.46 0.56 0.66 0.84 1.11 0.96 1.03 1.12 1.06 1.02 1.17 1.27 1.21 1.08 1.40 1.31 0.75 0.39 0.26 0.18 0.10 0.12 0.11 0.07 0.05 0.09 0.16 0.23 0.27 0.27
0.13 0.16 0.21 0.33 0.44 0.50 0.63 0.74 0.82 0.88 0.78 0.69 0.70 0.77 0.80 0.88 0.95 1.07 1.11 1.06 1.09 1.05 0.91 0.94 1.10 1.02 0.81 1.14 1.27 1.12 0.63 0.29 0.15 0.09 0.10 0.10 0.10 0.12 0.14 0.17 0.20 0.28 0.28
0.12 0.12 0.21 0.29 0.37 0.52 0.69 0.85 0.96 1.09 1.04 1.05 1.12 1.20 1.12 1.14 1.12 1.17 1.09 1.05 1.02 1.02 0.86 0.80 0.94 0.98 0.82 0.89 1.18 1.39 0.98 0.49 0.31 0.16 0.16 0.21 0.27 0.29 0.27 0.25 0.26 0.28 0.32
0.16 0.19 0.32 0.38 0.46 0.66 0.91 1.04 1.11 1.27 1.41 1.57 1.78 1.73 1.58 1.44 1.30 1.20 1.04 0.91 0.81 0.81 0.74 0.71 0.82 0.89 0.91 0.75 0.83 0.95 0.95 0.83 0.67 0.35 0.21 0.27 0.40 0.40 0.35 0.32 0.31 0.31 0.36
0.30 0.36 0.56 0.66 0.81 1.03 1.20 1.33 1.44 1.55 1.66 1.67 1.67 1.58 1.46 1.36 1.22 1.09 0.96 0.86 0.79 0.73 0.67 0.65 0.67 0.70 0.72 0.66 0.67 0.69 0.76 0.78 0.73 0.60 0.40 0.40 0.41 0.33 0.29 0.26 0.28 0.36 0.45
0.78 0.75 0.80 0.88 1.03 1.17 1.25 1.33 1.38 1.36 1.34 1.27 1.17 1.07 0.98 0.93 0.84 0.76 0.67 0.59 0.57 0.57 0.57 0.57 0.56 0.56 0.57 0.58 0.60 0.62 0.68 0.75 0.82 0.82 0.68 0.57 0.49 0.40 0.34 0.30 0.31 0.37 0.45